Tracking 19817 objects as of 20-Aug-2019
HD Live streaming from Space Station
objects crossing your sky now

COSMOS 2251 DEB

Track COSMOS 2251 DEB now!
10-day predictions


NORAD ID: 34059
Int'l Code: 1993-036JW
Perigee: 748.6 km
Apogee: 779.6 km
Inclination: 74.0 °
Period: 100.0 minutes
Semi major axis: 7135 km
RCS: 0.045 m2 (small)
Launch date: June 16, 1993
Source: Commonwealth of Independent States (former USSR) (CIS)
Launch site: PLESETSK MISSILE AND SPACE COMPLEX (PKMTR)

Note: This is SATELLITE DEBRIS
aabbcc
Your satellite tracking list
Your tracking list is empty




NASA's NSSDC Master Catalog

Two Line Element Set (TLE):
1 34059U 93036JW  19230.93313236 +.00000222 +00000-0 +77764-4 0  9998
2 34059 074.0446 156.0800 0021730 082.8069 346.7137 14.40460995551491
Source of the keplerian elements: AFSPC